Terug naar catalogus

HYLAS 4

ActiefCommunicatieGEO
NORAD 43272·PAYLOAD·🇬🇧 United Kingdom

Gelanceerd Apr 5, 2018 vanaf Guiana Space Centre

Loading…

TLE

VersSource: Space-Track

Epoch: Sep 14, 2026, 22:11 UTC

1 43272U 18033B   26257.92486075 -.00000241  00000-0  00000-0 0  9994
2 43272   0.0831 269.3840 0000897 260.0411 123.9054  1.00271042 30961

Volg HYLAS 4 in realtime met AllMySat

Download on the App Store